FENGYUN 1C DEB, 36254

Orbit data source: Space-Track

FENGYUN 1C DEB, 36254 is space debris in SSO originally from a launch on Mon, 10 May 1999 UTC launched from the Taiyaun Space Center, China (TSC). Fengyun 1C debris stems from the Chinese weather satellite Fengyun-1C, which was intentionally destroyed by a Chinese anti-satellite missile in 2007. This event dramatically increased the amount of space debris, with thousands of trackable fragments posing hazards to satellites and human spaceflight. The Fengyun 1C debris cloud has become a focal point in discussions about space sustainability and the need for international regulations to prevent the creation of new debris.

Not visible in the next 10 days
Identifier
36254, 1999-025DWF
Orbit
SSO
Country
Flag of CNCN / PRC
Related business
Manufacturer
Unknown
Mission
Spacecraft
Bus & Motor
Unknown
Mass
Unknown
Launch date (UTC)
1999-05-10 (27 years ago)
Launch vehicle
Unknown
Launch site
Taiyaun Space Center, China (TSC)
Object type
Payload
Rocket body
Debris
Shape & HBR
Unknown shape, 0.1 m
Radar Cross Section
Small (<0.1 m²)

Expand to show TLE details & history
Last TLE update: 5 months ago

TLE from 5 months ago
0 FENGYUN 1C DEB
1 36254U 99025DWF 25365.62496895  .00148817  00000-0  64476-2 0  9993
2 36254  99.5277 324.6304 0036666 348.1740  11.8624 15.21123353610631
Epoch: 2025-12-31T14:59Z
TLE epoch observation values (Epoch: 2025-12-31T14:59:57.317Z)
Latitude
-0.00001°
Longitude
-0.64963°
Altitude
480.783 km
Speed
7.639 km/s
True Right ascension
21h 38m 31s
True Declination
0° 00' 00"
Sunlit
Object was in daylight at epoch
Visualization orbit readout
Latitude
Unknown
Longitude
Unknown
Altitude
Unknown
Speed
Unknown
Apparent Right ascension
Unknown
Apparent Declination
Unknown
Sunlit
N/A
Visualization observer readout
Local Sidereal Time
18:10:20
Azimuth
Unknown
Elevation
Unknown
Doppler factor
Unknown
Orbital elements
Apogee altitude
524.736 km
Perigee altitude
474.301 km
Semi-major axis
6,877.656 km
Eccentricity
0.00367
Inclination
99.5277°
RAAN
324.6304°
Arg. of periapsis
348.174°
True anomaly
11.94916°
Mean anomaly
11.8624°
Eccentric anomaly
11.90574°
Mean motion
3.80524 °/min
Orbital period
94.61 mins
BSTAR
0.0064476
Loading maneuver chart data...
Computing Atmospheric mass density...

Documentation

Showing up to 5 results
|